Weather reports worldwide

Advertisment
Leck, Germany (10022): temperature & dewpoint: 10.08.2018 13:00:00 - 16.08.2018 13:00:00 (CEST)Leck, Germany (10022): temperature 5cm & temperature -5cm: 10.08.2018 13:00:00 - 16.08.2018 13:00:00 (CEST)Leck, Germany (10022): temperature -20cm & temperature -100cm: 10.08.2018 13:00:00 - 16.08.2018 13:00:00 (CEST)Leck, Germany (10022): wind speed & gusts: 10.08.2018 13:00:00 - 16.08.2018 13:00:00 (CEST)Leck, Germany (10022): wind direction: 10.08.2018 13:00:00 - 16.08.2018 13:00:00 (CEST)Leck, Germany (10022): reduced air pressure: 10.08.2018 13:00:00 - 16.08.2018 13:00:00 (CEST)Leck, Germany (10022): visibility: 10.08.2018 13:00:00 - 16.08.2018 13:00:00 (CEST)Leck, Germany (10022): sunshine duration: 10.08.2018 13:00:00 - 16.08.2018 13:00:00 (CEST)Leck, Germany (10022): precipitation: 10.08.2018 13:00:00 - 16.08.2018 13:00:00 (CEST)
Date & Time tt [°C] td [°C] tt 5cm [°C] tt -5cm [°C] tt -20cm [°C] tt -100cm [°C] ff [km/h] ff [kn] fx [km/h] fx [kn] dd ppp [hPa] vv [km] sd [min] rr [mm]
16.08.2018 13:00:00 21,5 14,6 24,4 24,2 18,8 17,1 29 16 47 25 SSW 1014,0 3,2 48 0,0
16.08.2018 12:00:00 21,1 15,8 23,2 23,2 18,5 17,1 29 16 49 26 SSW 1013,8 4,5 38 0,0
16.08.2018 11:00:00 20,8 14,7 22,1 22,1 18,2 17,1 26 14 41 22 S 1014,0 8 45 0,0
16.08.2018 10:00:00 20,9 15,3 23,1 20,3 18,1 17,1 24 13 36 20 S 1014,2 4,2 25 0,0
16.08.2018 09:00:00 19,3 16,5 19,5 18,4 18,1 17,1 22 12 33 18 S 1014,5 5 0 0,0
16.08.2018 08:00:00 18,6 16,2 18,3 17,6 18,1 17,1 15 8 21 12 S 1014,9 6 0 0,0
16.08.2018 07:00:00 18,2 15,6 17,7 17,3 18,2 17,1 12 6 19 11 S 1015,0 8 0 0,0
16.08.2018 06:00:00 17,7 16,0 17,2 17,3 18,3 17,1 13 7 18 10 S 1015,2 6 0 0,0
16.08.2018 05:00:00 17,5 16,2 16,8 17,3 18,4 17,1 11 6 18 10 S 1015,4 5 0 0,0
16.08.2018 04:00:00 18,2 16,7 17,8 17,8 18,5 17,1 11 6 16 9 S 1015,7 6 0 0,0
16.08.2018 03:00:00 17,8 16,9 16,3 17,9 18,6 17,1 9 5 15 8 S 1016,0 3,7 0 0,0
16.08.2018 02:00:00 18,6 17,4 18,0 18,2 18,7 17,1 9 5 15 8 S 1016,4 5 0 0,0
16.08.2018 01:00:00 18,5 17,3 17,8 18,2 18,8 17,1 6 4 9 5 S 1016,6 4,5 0 0,0
16.08.2018 00:00:00 18,6 16,5 18,1 18,3 18,9 17,1 7 4 13 7 S 1016,6 7 0 0,0
15.08.2018 23:00:00 18,6 16,6 18,0 18,6 19,0 17,1 8 4 12 7 S 1016,7 7 0 0,0
15.08.2018 22:00:00 18,9 16,4 18,3 18,8 19,0 17,1 8 5 12 6 SSW 1016,9 8 0 0,0
15.08.2018 21:00:00 19,2 16,0 18,6 19,3 19,1 17,1 5 3 13 7 SSW 1016,8 14 0 0,0
15.08.2018 20:00:00 20,2 14,8 19,8 20,1 19,1 17,1 8 5 17 9 WSW 1016,6 40 40 0,0
15.08.2018 19:00:00 20,5 15,2 21,1 20,1 19,1 17,1 10 5 25 13 WSW 1016,7 25 3 0,0
15.08.2018 18:00:00 20,3 15,2 20,3 20,4 19,0 17,2 16 9 29 16 WSW 1016,8 26 0 0,0
15.08.2018 17:00:00 20,3 15,1 20,7 20,4 18,9 17,2 16 9 29 15 WSW 1016,7 27 0 0,0
15.08.2018 16:00:00 20,6 14,8 21,0 21,1 18,8 17,2 16 8 29 16 W 1016,5 28 1 0,0
15.08.2018 15:00:00 20,8 15,0 21,7 21,9 18,5 17,2 19 10 32 18 W 1016,5 23 10 0,0
15.08.2018 14:00:00 20,8 15,6 21,7 20,8 18,4 17,2 14 8 29 16 WSW 1016,4 20 0 0,0
15.08.2018 13:00:00 20,1 15,5 20,6 20,8 18,2 17,2 19 10 30 16 SW 1016,0 21 4 0,0
15.08.2018 12:00:00 20,2 16,5 20,5 20,7 17,9 17,2 16 9 29 16 WSW 1015,9 15 0 0,0
15.08.2018 11:00:00 19,9 16,6 20,4 19,5 17,8 17,2 20 11 31 17 WSW 1015,7 14 2 0,1
15.08.2018 10:00:00 19,2 16,3 19,5 18,6 17,7 17,2 14 7 22 12 SW 1015,4 14 0 0,0
15.08.2018 09:00:00 18,2 15,9 17,4 18,2 17,7 17,2 13 7 19 11 WSW 1015,0 15 10 0,0
15.08.2018 08:00:00 17,8 15,7 18,1 17,0 17,7 17,2 8 4 13 7 SSW 1014,4 23 43 0,0
15.08.2018 07:00:00 16,0 15,1 14,7 16,0 17,9 17,2 8 4 14 7 WSW 1014,3 16 0 0,0
15.08.2018 06:00:00 15,9 14,6 15,0 16,1 18,0 17,2 9 5 21 12 WSW 1014,1 21 0 0,4
15.08.2018 05:00:00 16,1 15,2 15,4 16,1 18,2 17,2 12 6 23 13 W 1014,3 4,7 0 0,7
15.08.2018 04:00:00 15,6 14,2 14,8 15,9 18,4 17,2 7 4 12 6 SSW 1014,2 23 0 0,0
15.08.2018 03:00:00 15,8 13,2 14,8 15,8 18,6 17,2 9 5 13 7 WSW 1014,2 29 0 0,0
15.08.2018 02:00:00 15,6 13,0 13,8 16,2 18,9 17,2 9 5 14 8 W 1014,2 27 0 0,0
15.08.2018 01:00:00 16,4 13,4 15,1 16,8 19,1 17,2 10 5 23 12 W 1013,8 31 0 0,0
15.08.2018 00:00:00 16,8 13,9 15,6 17,5 19,3 17,2 14 8 24 13 WNW 1013,4 33 0 0,0
14.08.2018 23:00:00 17,4 15,7 16,5 18,1 19,6 17,2 14 7 34 19 WNW 1013,0 24 0 0,0
14.08.2018 22:00:00 17,5 16,0 16,7 18,5 19,8 17,2 23 12 37 20 WNW 1012,5 34 0 0,1
14.08.2018 21:00:00 18,0 16,6 17,2 19,4 20,0 17,2 17 9 32 18 WNW 1011,7 25 0 2,2
14.08.2018 20:00:00 19,5 15,7 19,2 20,7 20,0 17,2 7 4 22 12 W 1010,9 16 1 0,0
14.08.2018 19:00:00 20,3 14,5 20,5 21,7 20,0 17,3 16 9 26 14 WNW 1010,8 17 17 0,0
14.08.2018 18:00:00 20,9 14,5 22,7 22,3 19,9 17,3 17 9 31 17 NW 1010,3 11 11 0,0
14.08.2018 17:00:00 20,5 13,9 21,2 23,9 19,6 17,3 22 12 36 20 WNW 1010,0 13 39 0,0
14.08.2018 16:00:00 21,8 14,0 24,3 25,0 19,3 17,3 23 13 35 19 WNW 1009,5 7 49 0,0
14.08.2018 15:00:00 20,9 13,9 22,1 24,4 18,9 17,3 21 11 31 17 WNW 1008,9 13 34 0,0
14.08.2018 14:00:00 21,3 14,5 23,8 24,0 18,5 17,3 19 11 29 16 WNW 1008,3 9 39 0,0
14.08.2018 13:00:00 20,5 14,9 22,1 22,5 18,2 17,3 16 9 22 12 WNW 1007,7 14 10 0,0
14.08.2018 12:00:00 21,3 16,8 25,1 21,3 18,0 17,3 14 8 22 12 WNW 1007,1 9 14 0,0
14.08.2018 11:00:00 19,0 16,1 19,3 19,9 17,8 17,3 14 8 24 13 W 1006,7 7 0 0,0
14.08.2018 10:00:00 19,5 16,1 19,5 20,2 17,6 17,3 16 9 26 14 W 1006,2 13 19 0,0
14.08.2018 09:00:00 18,7 15,9 18,4 18,6 17,5 17,3 11 6 18 10 W 1005,7 12 19 0,0
14.08.2018 08:00:00 17,8 16,3 17,1 17,2 17,6 17,3 10 5 18 10 W 1005,2 7 0 0,0
14.08.2018 07:00:00 17,3 16,0 16,7 16,7 17,6 17,4 11 6 16 8 WSW 1004,6 7 0 0,1
14.08.2018 06:00:00 16,7 15,5 16,0 16,6 17,7 17,4 10 6 16 9 SW 1004,3 5 0 0,0
14.08.2018 05:00:00 16,6 16,1 16,2 16,6 17,8 17,4 7 4 10 6 S 1004,2 2,7 0 0,0
14.08.2018 04:00:00 16,5 16,0 16,0 16,8 17,9 17,4 6 4 9 5 S 1004,3 2,7 0 0,1
14.08.2018 03:00:00 16,3 15,8 15,7 16,8 18,0 17,4 5 3 6 3 S 1004,4 2,5 0 0,4
14.08.2018 02:00:00 16,4 15,8 15,8 16,9 18,1 17,4 8 4 16 9 S 1004,5 3,8 0 0,0
14.08.2018 01:00:00 16,7 16,0 16,3 17,1 18,2 17,4 8 4 11 6 S 1004,5 3,2 0 0,0
14.08.2018 00:00:00 16,7 15,5 16,0 17,2 18,3 17,4 8 4 18 10 SE 1004,4 7 0 0,1
13.08.2018 23:00:00 17,2 15,7 16,1 17,5 18,4 17,5 14 8 22 12 SSE 1004,3 7 0 0,6
13.08.2018 22:00:00 18,5 15,9 17,2 17,8 18,4 17,5 10 5 16 8 E 1003,9 11 0 0,0
13.08.2018 21:00:00 18,8 15,7 17,8 18,4 18,5 17,5 9 5 19 11 E 1004,1 14 0 0,0
13.08.2018 20:00:00 19,3 14,7 18,5 19,1 18,4 17,5 11 6 18 10 E 1004,2 20 0 0,0
13.08.2018 19:00:00 19,6 16,1 19,8 19,5 18,4 17,5 11 6 16 9 NE 1004,3 13 0 0,0
13.08.2018 18:00:00 19,4 16,2 19,2 19,6 18,3 17,5 12 6 16 9 NE 1004,9 13 0 0,0
13.08.2018 17:00:00 19,2 16,5 18,3 19,4 18,3 17,5 6 3 12 6 NNE 1005,3 11 0 0,0
13.08.2018 16:00:00 19,5 16,3 18,5 19,9 18,1 17,5 6 3 12 6 NE 1005,6 13 0 0,0
13.08.2018 15:00:00 19,6 16,8 18,8 19,9 18,0 17,6 9 5 18 10 NE 1005,8 8 0 0,6
13.08.2018 14:00:00 20,6 15,9 20,0 19,9 17,8 17,6 11 6 19 11 E 1006,0 15 0 0,0
13.08.2018 13:00:00 20,4 15,7 20,3 20,0 17,6 17,6 13 7 17 9 E 1006,0 12 0 0,0
13.08.2018 12:00:00 19,8 16,2 19,2 19,5 17,4 17,6 7 4 14 8 ENE 1006,3 14 0 0,0
13.08.2018 11:00:00 19,1 15,5 18,1 19,0 17,2 17,6 10 5 16 9 E 1006,6 14 0 0,0
13.08.2018 10:00:00 17,8 14,7 18,2 18,5 17,1 17,6 9 5 13 7 E 1006,9 10 6 0,1
13.08.2018 09:00:00 16,4 15,1 16,2 16,6 17,1 17,6 6 4 9 5 E 1006,9 4,7 0 0,1
13.08.2018 08:00:00 16,0 15,0 15,6 16,1 17,1 17,7 7 4 13 7 E 1007,0 4,1 0 0,0
13.08.2018 07:00:00 15,7 15,0 15,3 15,8 17,2 17,7 7 4 9 5 E 1007,1 2,7 0 0,0
13.08.2018 06:00:00 15,4 14,8 14,8 15,8 17,3 17,7 6 4 8 5 ESE 1007,3 2,7 0 0,0
13.08.2018 05:00:00 15,7 15,2 15,0 15,9 17,3 17,7 7 4 8 5 E 1007,7 2,7 0 0,0
13.08.2018 04:00:00 15,9 15,5 15,2 16,1 17,4 17,7 6 3 8 5 E 1008,1 2,8 0 0,0
13.08.2018 03:00:00 16,3 15,6 15,2 16,2 17,5 17,7 4 2 9 5 SE 1008,5 8 0 0,0
13.08.2018 02:00:00 16,8 15,6 15,8 16,3 17,5 17,8 8 4 10 6 S 1009,0 12 0 0,0
13.08.2018 01:00:00 16,6 15,7 15,5 16,4 17,6 17,8 6 3 10 6 S 1009,3 8 0 0,1
13.08.2018 00:00:00 16,9 15,9 15,9 16,6 17,6 17,8 5 3 12 6 SSW 1009,5 7 0 0,2
12.08.2018 23:00:00 17,2 16,1 16,0 16,8 17,7 17,8 4 2 14 8 S 1009,7 8 0 0,6
12.08.2018 22:00:00 17,7 15,2 16,3 16,9 17,7 17,8 9 5 23 13 SW 1010,2 7 0 0,3
12.08.2018 21:00:00 17,7 14,9 16,4 17,0 17,7 17,8 10 5 23 13 SW 1010,0 17 0 0,5
12.08.2018 20:00:00 16,3 14,9 15,7 17,1 17,7 17,9 8 4 13 7 SSE 1010,3 3,3 0 0,7
12.08.2018 19:00:00 15,8 14,4 15,5 17,2 17,8 17,9 9 5 16 9 SSE 1010,7 5 0 0,0
12.08.2018 18:00:00 15,0 13,9 15,1 17,1 17,8 17,9 12 6 21 11 SE 1011,4 3,7 0 0,7
12.08.2018 17:00:00 14,2 13,5 14,2 17,0 17,8 17,9 11 6 23 13 SE 1012,6 2,7 0 2,0
12.08.2018 16:00:00 14,0 13,1 14,3 17,6 17,8 17,9 10 6 19 11 S 1013,6 2,8 0 1,1
12.08.2018 15:00:00 14,8 12,0 14,3 18,5 17,7 17,9 16 8 26 14 S 1014,4 11 0 0,4
12.08.2018 14:00:00 15,4 11,0 15,1 18,6 17,6 18,0 14 7 34 18 SSW 1014,8 11 0 0,8
12.08.2018 13:00:00 17,5 10,9 17,4 19,4 17,3 18,0 19 11 32 18 SSW 1014,9 16 0 0,0
12.08.2018 12:00:00 17,7 12,3 18,1 19,1 17,1 18,0 16 9 27 15 SW 1015,2 20 0 0,0
12.08.2018 11:00:00 18,1 10,7 19,4 18,3 16,9 18,0 16 9 26 14 SW 1015,3 19 0 0,0
12.08.2018 10:00:00 17,4 10,9 17,4 17,4 16,8 18,0 12 7 24 13 WSW 1015,5 37 8 0,0
12.08.2018 09:00:00 17,6 10,8 19,2 16,0 16,8 18,0 11 6 19 10 SW 1015,6 23 18 0,0
12.08.2018 08:00:00 15,4 11,5 15,0 14,6 16,8 18,0 7 4 11 6 SW 1016,0 37 0 0,0
12.08.2018 07:00:00 14,5 11,1 13,6 13,9 17,0 18,1 8 4 18 10 SSW 1015,9 42 0 0,0
12.08.2018 06:00:00 14,7 11,7 13,5 13,7 17,1 18,1 11 6 18 10 SW 1016,0 35 0 0,0
12.08.2018 05:00:00 14,8 11,7 13,3 13,8 17,2 18,1 11 6 18 10 SW 1016,2 30 0 0,0
12.08.2018 04:00:00 14,0 11,7 12,4 13,6 17,5 18,1 6 3 18 10 W 1016,8 31 0 0,0
12.08.2018 03:00:00 12,4 10,9 10,5 13,3 17,7 18,1 4 2 9 5 SW 1017,0 23 0 0,0
12.08.2018 02:00:00 12,3 10,2 9,4 13,2 18,0 18,1 8 5 13 7 SW 1017,4 51 0 0,0
12.08.2018 01:00:00 13,8 10,5 11,2 13,9 18,3 18,1 10 5 16 9 WSW 1017,8 33 0 0,0
12.08.2018 00:00:00 14,3 10,4 12,2 14,3 18,6 18,2 11 6 18 10 W 1018,1 34 0 0,0
11.08.2018 23:00:00 14,9 10,1 12,9 15,1 18,9 18,2 12 7 26 14 W 1018,2 35 0 0,0
11.08.2018 22:00:00 15,5 10,7 14,1 15,9 19,1 18,2 14 8 26 14 W 1018,2 39 0 0,0
11.08.2018 21:00:00 16,3 10,2 15,3 17,0 19,2 18,2 16 9 31 17 W 1017,7 40 6 0,0
11.08.2018 20:00:00 17,4 9,9 17,2 18,3 19,3 18,2 25 14 44 24 WNW 1017,4 10 54 0,0
11.08.2018 19:00:00 18,0 10,1 18,7 19,4 19,2 18,2 28 15 48 26 W 1017,2 10 51 0,0
11.08.2018 18:00:00 17,9 9,8 18,5 19,7 19,1 18,2 31 17 51 28 WNW 1016,8 10 25 0,0
11.08.2018 17:00:00 18,1 10,0 18,8 20,7 19,0 18,2 33 18 55 30 WNW 1016,4 11 41 0,0
11.08.2018 16:00:00 17,3 9,9 18,1 19,8 18,9 18,2 31 17 56 30 NW 1015,8 11 20 0,3
11.08.2018 15:00:00 17,9 10,1 19,0 21,0 18,6 18,3 35 19 58 31 WNW 1015,0 7 37 0,0
11.08.2018 14:00:00 17,0 10,3 19,5 20,5 18,4 18,3 30 16 54 29 W 1014,5 8 34 0,0
11.08.2018 13:00:00 14,6 12,0 14,3 18,8 18,3 18,3 29 16 44 24 W 1014,3 12 8 0,7
11.08.2018 12:00:00 16,2 12,2 18,0 19,7 18,1 18,3 25 14 49 27 WSW 1014,0 7 23 0,0
11.08.2018 11:00:00 17,2 11,7 19,3 18,6 18,1 18,3 24 13 46 25 WSW 1013,7 9 30 0,0
11.08.2018 10:00:00 16,3 11,0 16,1 17,2 18,0 18,3 19 10 43 23 WSW 1013,7 24 9 0,0
11.08.2018 09:00:00 16,3 12,9 16,5 16,8 18,1 18,3 21 11 44 24 SSW 1013,6 9 29 0,3
11.08.2018 08:00:00 14,9 12,0 13,6 14,7 18,3 18,3 21 12 39 21 S 1013,7 19 2 0,0
11.08.2018 07:00:00 14,0 12,5 13,1 14,6 18,5 18,3 9 5 29 16 SSW 1013,9 29 0 0,6
11.08.2018 06:00:00 13,3 11,6 12,3 14,8 18,7 18,3 20 11 31 17 S 1013,9 32 0 0,4
11.08.2018 05:00:00 13,9 13,0 13,3 15,2 19,0 18,3 9 5 23 12 SW 1014,6 9 0 2,4
11.08.2018 04:00:00 14,1 11,7 13,1 15,3 19,2 18,4 15 8 22 12 SSE 1014,9 16 0 0,2
11.08.2018 03:00:00 14,1 11,6 12,9 15,4 19,5 18,4 16 8 31 17 SSE 1015,6 19 0 0,8
11.08.2018 02:00:00 14,1 10,0 13,7 15,5 19,8 18,4 19 10 29 16 SE 1015,6 23 0 0,0
11.08.2018 01:00:00 13,6 10,7 13,0 15,6 20,1 18,4 14 8 18 10 SE 1016,7 19 0 0,0
11.08.2018 00:00:00 13,0 10,7 11,1 16,1 20,5 18,4 6 4 17 9 ESE 1017,5 22 0 0,0
10.08.2018 23:00:00 13,8 11,0 11,0 17,0 20,8 18,4 7 4 14 8 SE 1017,9 29 0 0,0
10.08.2018 22:00:00 15,2 12,0 13,4 18,5 21,0 18,4 11 6 20 11 S 1018,2 41 0 0,0
10.08.2018 21:00:00 17,2 10,5 16,5 19,8 21,2 18,4 12 7 26 14 SW 1018,4 62 12 0,0
10.08.2018 20:00:00 18,2 10,1 18,5 21,3 21,2 18,4 24 13 39 21 SW 1018,4 9 33 0,0
10.08.2018 19:00:00 18,6 12,4 19,6 22,3 21,2 18,4 26 14 50 27 SW 1018,5 8 38 0,0
10.08.2018 18:00:00 18,5 10,2 19,4 22,7 21,1 18,4 22 12 44 24 SW 1018,7 14 3 0,0
10.08.2018 17:00:00 18,8 10,9 20,5 25,0 20,8 18,4 29 16 48 26 SW 1018,7 8 38 0,0
10.08.2018 16:00:00 20,1 10,2 22,9 24,4 20,5 18,4 28 15 45 24 SW 1018,4 7 28 0,0
10.08.2018 15:00:00 18,5 8,7 19,8 23,8 20,2 18,4 28 15 50 27 WSW 1018,3 16 40 0,0
10.08.2018 14:00:00 19,0 12,3 22,2 22,5 20,0 18,4 31 17 53 28 SW 1017,8 7 29 0,0
10.08.2018 13:00:00 20,0 11,3 23,0 22,3 19,7 18,4 31 17 53 29 SW 1017,0 4,3 57 0,0

tt = temperature
td = dewpoint
tt 5cm = temperature 5cm
tt -5cm = temperature -5cm
tt -20cm = temperature -20cm
tt -100cm = temperature -100cm
ff = wind speed
fx = gusts
dd = wind direction
ppp = reduced air pressure
vv = visibility
sd = sunshine duration
rr = precipitation

Next stations